[[{"header":{"parameterUnit":"m.s-1","parameterCategory":1,"la1":30.2991,"la2":30.254,"lo1":-89.0895,"lo2":-89.0444,"dy":0.0017,"dx":0.0017,"nx":28,"ny":28,"refTime":"2024-06-20T03:00:00:Z","depth":0,"parameterNumber":2,"parameterNumberName":"U-component_of_WINDS"},"data":[0,0,0,0,0,0,0,0,0,0,0,0,0,0,0,0,0,0,0,0,0,0,0,0,0,0,0,0,0,0,0,0,0,0,0,0,0,0,0,0,0,0,0,0,0,0,0,0,0,0,0,0,0,0,0,0,0,0,-3.5013,-3.5012,0,-3.4957,-3.4957,-3.4956,-3.48,-3.4796,-3.4793,-3.479,-3.4736,-3.4738,-3.474,0,0,0,0,0,0,0,0,0,0,0,0,0,-3.4985,-3.4987,-3.5013,-3.5012,-3.5011,-3.4957,-3.4957,-3.4956,-3.48,-3.4796,-3.4792,-3.4788,-3.4736,-3.4738,-3.474,0,0,0,0,0,0,0,0,0,0,0,0,0,-3.4971,-3.4987,-3.5013,-3.4927,-3.4919,-3.4958,-3.4957,-3.4956,-3.4801,-3.4796,-3.4791,-3.4786,-3.4735,-3.4738,-3.474,-3.4859,0,0,-3.4748,-3.4749,0,0,0,0,0,0,0,0,-3.4972,-3.4972,-3.494,-3.4933,-3.4924,-3.488,-3.4927,-3.4923,-3.4803,-3.4846,-3.479,-3.4784,-3.4789,-3.4787,-3.4787,-3.4856,-3.4854,-3.4749,-3.475,-3.4751,-3.4752,0,0,0,0,0,0,0,-3.4973,-3.4973,-3.4991,-3.494,-3.493,-3.4892,-3.4884,-3.4926,-3.4847,-3.4842,-3.483,-3.4826,-3.4783,-3.4785,-3.4785,-3.4853,-3.4748,-3.4751,-3.4752,-3.4753,-3.5015,-3.502,0,0,0,0,0,0,-3.4986,-3.4975,-3.4993,-3.4989,-3.4936,-3.4897,-3.4888,-3.49,-3.4846,-3.4833,-3.483,-3.4819,-3.4783,-3.4782,-3.4783,-3.4917,-3.4751,-3.4754,-3.4755,-3.5009,-3.5016,-3.5022,0,0,0,0,0,0,-3.4986,-3.4989,-3.4995,-3.4979,-3.4977,-3.4903,-3.4917,-3.4901,-3.4903,-3.4837,-3.4822,-3.4847,-3.4779,-3.4779,-3.484,-3.4913,-3.4755,-3.4757,-3.5003,-3.5011,-3.5019,-3.5188,0,0,0,0,0,0,-3.4986,-3.499,-3.5034,-3.4981,-3.4978,-3.5054,-3.4921,-3.4904,-3.4908,-3.4892,-3.4849,-3.4837,-3.4775,-3.4837,-3.4843,-3.4914,-3.4759,-3.4996,-3.5007,-3.5016,-3.5175,-3.5201,-3.5222,0,0,0,0,0,-3.4985,-3.5085,-3.5037,-3.504,-3.5032,-3.5058,-3.5057,-3.4983,-3.4914,-3.4958,-3.4915,-3.4838,-3.4904,-3.4845,-3.485,-3.4923,-3.4991,-3.5004,-3.5015,-3.5165,-3.5196,-3.5222,0,0,0,0,0,0,-3.515,-3.5076,-3.5023,-3.5108,-3.509,-3.5032,-3.5085,-3.5018,-3.5021,-3.5006,-3.4915,-3.4907,-3.4981,-3.4958,-3.4893,-3.5034,-3.4935,-3.4949,-3.5047,-3.5075,-3.5098,-3.5103,-3.4762,0,0,0,0,0,-3.5196,-3.5222,-3.5157,-3.5239,-3.5232,-3.5161,-3.5169,-3.5114,-3.5093,-3.5085,-3.5046,-3.503,-3.5046,-3.5059,-3.5071,-3.5171,-3.5159,-3.5223,-3.5246,-3.5266,-3.5279,-3.533,-3.5357,-3.5061,-3.5061,-3.5061,0,0,-3.5291,-3.5254,-3.5277,-3.5271,-3.525,-3.5281,-3.5156,-3.5193,-3.5215,-3.5091,-3.5146,-3.5118,-3.5093,-3.5174,-3.5207,-3.5156,-3.5358,-3.5281,-3.5297,-3.53,-3.5345,-3.5373,-3.5398,-3.507,-3.5068,-3.5067,0,0,-3.5481,-3.5456,-3.552,-3.5502,-3.5473,-3.5424,-3.544,-3.5391,-3.5367,-3.542,-3.5327,-3.5352,-3.5383,-3.5368,-3.5365,-3.5548,-3.5477,-3.5554,-3.5677,-3.5727,-3.5751,-3.5771,-3.5836,-3.5861,-3.5567,-3.5568,-3.5568,0,-3.5604,-3.5646,-3.5563,-3.5606,-3.5605,-3.5492,-3.5557,-3.5544,-3.5521,-3.5523,-3.5466,-3.5501,-3.5476,-3.5552,-3.5596,-3.5598,-3.5613,-3.5559,-3.5754,-3.5773,-3.5791,-3.5852,-3.5877,-3.5577,-3.5576,-3.5575,-3.5574,0,-3.5798,-3.5828,-3.5884,-3.5862,-3.5868,-3.5923,-3.5848,-3.5864,-3.5807,-3.5765,-3.5821,-3.5787,-3.5789,-3.5803,-3.5749,-3.5871,-3.584,-3.577,-3.5669,-3.583,-3.5886,-3.5909,-3.5591,-3.5588,-3.5585,-3.5582,0,0,-3.6093,-3.6022,-3.6044,-3.6033,-3.5991,-3.6013,-3.6061,-3.6062,-3.6078,-3.6065,-3.6104,-3.6131,-3.6065,-3.6062,-3.6005,-3.6049,-3.6196,-3.5972,-3.597,-3.6016,-3.6328,-3.6383,-3.6411,-3.6148,-3.6152,-3.6155,-3.6331,0,-3.6272,-3.635,-3.6276,-3.6369,-3.6396,-3.6288,-3.633,-3.6309,-3.627,-3.6288,-3.6244,-3.6266,-3.6177,-3.6174,-3.6213,-3.617,-3.6257,-3.6156,-3.6184,-3.6186,-3.6195,-3.644,-3.6498,-3.6665,-3.6352,-3.6356,-3.6358,0,-3.6493,-3.6488,-3.6584,-3.6534,-3.6542,-3.6582,-3.6576,-3.6593,-3.6568,-3.6536,-3.6532,-3.6462,-3.6506,-3.6406,-3.6467,-3.6399,-3.6406,-3.6387,-3.6391,-3.6392,-3.6283,-3.6449,-3.6716,-3.6742,-3.6392,-3.6389,-3.6387,0,-3.6698,-3.6716,-3.6775,-3.6768,-3.6712,-3.6742,-3.672,-3.6689,-3.6694,-3.6689,-3.6691,-3.6692,-3.6693,-3.6696,-3.6628,-3.6562,-3.6697,-3.6592,-3.6673,-3.6675,-3.6708,-3.6707,-3.6982,-3.6711,-3.6711,-3.671,-3.671,0,-3.6907,-3.697,-3.6866,-3.6903,-3.697,-3.6884,-3.6953,-3.692,-3.6892,-3.6921,-3.6828,-3.6857,-3.6765,-3.6784,-3.6732,-3.679,-3.6791,-3.6767,-3.6753,-3.6776,-3.678,-3.678,-3.6767,-3.6717,-3.6715,-3.6714,-3.6713,0,-3.7149,-3.7082,-3.7139,-3.708,-3.7066,-3.7119,-3.7068,-3.71,-3.7054,-3.7091,-3.7095,-3.7024,-3.7042,-3.6974,-3.6981,-3.6945,-3.7032,-3.6997,-3.704,-3.703,-3.7115,-3.7109,-3.7401,-3.7436,-3.7143,-3.7146,-3.7148,0,-3.7287,-3.7333,-3.7278,-3.7289,-3.7272,-3.7292,-3.7296,-3.7213,-3.7221,-3.7193,-3.7229,-3.7238,-3.7242,-3.7276,-3.7225,-3.723,-3.7196,-3.7298,-3.7196,-3.7218,-3.7198,-3.7196,-3.7201,-3.732,-3.7323,-3.7326,-3.7329,0,-3.754,-3.7504,-3.7512,-3.7509,-3.7516,-3.751,-3.7497,-3.7512,-3.7422,-3.7436,-3.7452,-3.7455,-3.7461,-3.7472,-3.7466,-3.7444,-3.7373,-3.7361,-3.738,-3.7405,-3.7428,-3.7417,-3.7099,-3.7355,-3.7352,-3.735,-3.7349,-3.7348,-3.7734,-3.7769,-3.7736,-3.7748,-3.7729,-3.7719,-3.7746,-3.7702,-3.7714,-3.7711,-3.7661,-3.7688,-3.7659,-3.7643,-3.7628,-3.7648,-3.76,-3.7628,-3.7635,-3.7643,-3.7658,-3.7424,-3.7646,-3.7645,-3.7645,-3.7644,-3.7643,0,-3.7983,-3.7955,-3.7967,-3.7951,-3.7961,-3.789,-3.7872,-3.7885,-3.7909,-3.7888,-3.7893,-3.7911,-3.7921,-3.7871,-3.7874,-3.79,-3.7867,-3.7903,-3.7901,-3.7897,-3.7701,-3.7684,-3.793,-3.793,-3.793,-3.793,-3.793,-3.793,-3.8113,-3.8168,-3.8128,-3.8173,-3.8145,-3.8169,-3.8164,-3.8155,-3.8137,-3.8162,-3.8169,-3.8135,-3.8102,-3.8102,-3.8108,-3.8093,-3.8099,-3.8147,-3.8121,-3.7939,-3.7911,-3.7885,-3.7869,-3.8149,-3.8149,-3.8316,-3.8318,-3.8319]},{"header":{"parameterUnit":"m.s-1","parameterCategory":1,"la1":30.2991,"la2":30.254,"lo1":-89.0895,"lo2":-89.0444,"dy":0.0017,"dx":0.0017,"nx":28,"ny":28,"refTime":"2024-06-20T03:00:00:Z","depth":0,"parameterNumber":3,"parameterNumberName":"V-component_of_WINDS"},"data":[0,0,0,0,0,0,0,0,0,0,0,0,0,0,0,0,0,0,0,0,0,0,0,0,0,0,0,0,0,0,0,0,0,0,0,0,0,0,0,0,0,0,0,0,0,0,0,0,0,0,0,0,0,0,0,0,0,0,-2.0494,-2.0496,0,-2.0641,-2.0643,-2.0645,-2.0705,-2.0704,-2.0704,-2.0704,-2.0851,-2.0855,-2.0859,0,0,0,0,0,0,0,0,0,0,0,0,0,-2.026,-2.0264,-2.0494,-2.0496,-2.0498,-2.0641,-2.0643,-2.0645,-2.0705,-2.0704,-2.0704,-2.0704,-2.085,-2.0855,-2.086,0,0,0,0,0,0,0,0,0,0,0,0,0,-2.0379,-2.0265,-2.0494,-2.0545,-2.0551,-2.0641,-2.0643,-2.0646,-2.0705,-2.0704,-2.0704,-2.0703,-2.0848,-2.0854,-2.086,-2.0909,0,0,-2.088,-2.0883,0,0,0,0,0,0,0,0,-2.0373,-2.0388,-2.0535,-2.0541,-2.0548,-2.0654,-2.0615,-2.0734,-2.0705,-2.0646,-2.0704,-2.0703,-2.0786,-2.0797,-2.0826,-2.0916,-2.0923,-2.088,-2.0884,-2.0887,-2.0889,0,0,0,0,0,0,0,-2.0364,-2.0382,-2.0552,-2.0537,-2.0545,-2.0559,-2.0575,-2.0638,-2.0717,-2.0651,-2.0656,-2.0673,-2.0789,-2.082,-2.083,-2.0925,-2.088,-2.0886,-2.089,-2.0892,-2.1062,-2.1063,0,0,0,0,0,0,-2.0348,-2.0375,-2.0547,-2.0557,-2.0458,-2.0563,-2.0582,-2.0621,-2.0716,-2.0731,-2.0673,-2.0675,-2.0809,-2.0822,-2.0835,-2.0899,-2.0887,-2.0893,-2.0897,-2.1061,-2.1062,-2.1063,0,0,0,0,0,0,-2.0343,-2.0363,-2.0542,-2.0467,-2.0491,-2.0568,-2.0611,-2.0624,-2.0654,-2.0733,-2.0747,-2.069,-2.0809,-2.0826,-2.0891,-2.0904,-2.0896,-2.0902,-2.106,-2.1062,-2.1063,-2.1025,0,0,0,0,0,0,-2.0336,-2.0361,-2.0381,-2.0467,-2.0495,-2.0596,-2.0612,-2.0627,-2.0666,-2.067,-2.0752,-2.0766,-2.081,-2.0881,-2.0897,-2.0913,-2.0906,-2.106,-2.1061,-2.1062,-2.1026,-2.1025,-2.1024,0,0,0,0,0,-2.0327,-2.0364,-2.0382,-2.0402,-2.0522,-2.0596,-2.0612,-2.0663,-2.0666,-2.0687,-2.0737,-2.0763,-2.09,-2.0887,-2.0906,-2.0924,-2.1059,-2.1061,-2.1062,-2.1026,-2.1025,-2.1024,0,0,0,0,0,0,-2.0277,-2.0376,-2.0397,-2.0463,-2.0521,-2.0606,-2.0634,-2.0661,-2.0718,-2.0719,-2.078,-2.0798,-2.0857,-2.0897,-2.088,-2.0976,-2.0981,-2.0987,-2.0948,-2.0947,-2.0947,-2.0936,-2.0912,0,0,0,0,0,-2.0273,-2.0327,-2.041,-2.046,-2.0489,-2.0556,-2.059,-2.0625,-2.0687,-2.0711,-2.0766,-2.0824,-2.088,-2.0916,-2.0972,-2.1032,-2.105,-2.1053,-2.1052,-2.1052,-2.1055,-2.1089,-2.1091,-2.1068,-2.1068,-2.1068,0,0,-2.0267,-2.0328,-2.0358,-2.0452,-2.0501,-2.0553,-2.0576,-2.0631,-2.067,-2.0719,-2.0784,-2.0826,-2.0894,-2.0956,-2.0986,-2.0991,-2.1066,-2.1054,-2.1052,-2.1057,-2.1091,-2.1093,-2.1095,-2.1069,-2.1069,-2.1069,0,0,-2.0281,-2.0333,-2.0381,-2.0429,-2.0503,-2.0548,-2.0559,-2.0641,-2.0671,-2.0737,-2.0774,-2.0821,-2.0917,-2.0964,-2.1,-2.1032,-2.1058,-2.1049,-2.1045,-2.1077,-2.1079,-2.1081,-2.1092,-2.1095,-2.1052,-2.1052,-2.1052,0,-2.0264,-2.0346,-2.0401,-2.0454,-2.0494,-2.0542,-2.0589,-2.0633,-2.0721,-2.0747,-2.0751,-2.0872,-2.0922,-2.0995,-2.1003,-2.1031,-2.1045,-2.104,-2.1075,-2.1077,-2.108,-2.1091,-2.1095,-2.1051,-2.1051,-2.1051,-2.1051,0,-2.032,-2.0376,-2.0405,-2.049,-2.0533,-2.0583,-2.0644,-2.0681,-2.0712,-2.0755,-2.0821,-2.0882,-2.0951,-2.0971,-2.1001,-2.1048,-2.1049,-2.1063,-2.107,-2.1079,-2.1091,-2.1095,-2.1048,-2.1049,-2.1049,-2.105,0,0,-2.0307,-2.0422,-2.0432,-2.0471,-2.0555,-2.0599,-2.065,-2.0719,-2.0749,-2.0808,-2.0852,-2.0931,-2.0945,-2.0986,-2.1022,-2.105,-2.107,-2.1061,-2.1063,-2.106,-2.1126,-2.1114,-2.1118,-2.1088,-2.1089,-2.109,-2.112,0,-2.0333,-2.0429,-2.048,-2.0553,-2.0605,-2.0651,-2.0695,-2.0751,-2.0793,-2.0842,-2.0888,-2.0943,-2.0957,-2.0983,-2.1012,-2.1062,-2.1084,-2.106,-2.1128,-2.113,-2.111,-2.1124,-2.1113,-2.1138,-2.1125,-2.1125,-2.1126,0,-2.0377,-2.0436,-2.0515,-2.0593,-2.0617,-2.0656,-2.0723,-2.0769,-2.0833,-2.0862,-2.0907,-2.0943,-2.0997,-2.1,-2.1075,-2.1057,-2.1088,-2.1116,-2.1118,-2.1127,-2.1128,-2.1132,-2.1148,-2.1151,-2.1133,-2.1133,-2.1132,0,-2.0359,-2.0458,-2.0518,-2.055,-2.0643,-2.0669,-2.0709,-2.0773,-2.081,-2.0868,-2.0893,-2.0956,-2.099,-2.1037,-2.1088,-2.1085,-2.1157,-2.1165,-2.1182,-2.118,-2.1195,-2.1193,-2.1215,-2.1215,-2.1215,-2.1215,-2.1214,0,-2.0383,-2.0429,-2.0512,-2.0548,-2.0601,-2.0658,-2.0708,-2.0752,-2.0808,-2.0853,-2.0895,-2.0936,-2.1001,-2.1049,-2.1089,-2.1145,-2.116,-2.1184,-2.1194,-2.118,-2.1177,-2.1201,-2.12,-2.1216,-2.1215,-2.1215,-2.1215,0,-2.0372,-2.0429,-2.0498,-2.058,-2.0602,-2.0637,-2.0707,-2.0744,-2.0788,-2.0844,-2.086,-2.0929,-2.0988,-2.1043,-2.1122,-2.1149,-2.1205,-2.1218,-2.1184,-2.1189,-2.1203,-2.1201,-2.1241,-2.1249,-2.1243,-2.1243,-2.1243,0,-2.0383,-2.042,-2.0507,-2.0541,-2.058,-2.0633,-2.0672,-2.073,-2.0768,-2.0843,-2.0871,-2.0933,-2.0987,-2.1079,-2.1135,-2.1196,-2.121,-2.122,-2.1219,-2.1204,-2.121,-2.1207,-2.1211,-2.1219,-2.1219,-2.1218,-2.1218,0,-2.0397,-2.0424,-2.0479,-2.0544,-2.0589,-2.0643,-2.0698,-2.0722,-2.079,-2.083,-2.0892,-2.0934,-2.1015,-2.1076,-2.1143,-2.1182,-2.1211,-2.1218,-2.1225,-2.1211,-2.119,-2.1201,-2.1181,-2.1217,-2.1217,-2.1217,-2.1217,-2.1217,-2.0398,-2.0433,-2.0499,-2.0559,-2.0606,-2.0656,-2.0695,-2.0743,-2.0796,-2.0868,-2.0898,-2.096,-2.1022,-2.1115,-2.1154,-2.1203,-2.1209,-2.1219,-2.1222,-2.1224,-2.1221,-2.1182,-2.1215,-2.1215,-2.1215,-2.1215,-2.1216,0,-2.0414,-2.0459,-2.0513,-2.0589,-2.0635,-2.066,-2.0721,-2.0758,-2.0813,-2.0869,-2.0921,-2.0991,-2.1051,-2.1111,-2.1174,-2.1201,-2.1216,-2.1216,-2.1214,-2.1223,-2.1212,-2.1199,-2.1203,-2.1203,-2.1203,-2.1203,-2.1203,-2.1203,-2.0427,-2.0487,-2.0521,-2.0604,-2.0649,-2.0711,-2.0744,-2.079,-2.0835,-2.0912,-2.0963,-2.1002,-2.106,-2.1127,-2.1182,-2.1198,-2.1219,-2.1215,-2.1235,-2.1223,-2.1224,-2.1224,-2.1213,-2.1219,-2.1219,-2.1242,-2.1242,-2.1242]}]]